Time,TemperatureF,DewpointF,PressureIn,WindDirection,WindDirectionDegrees,WindSpeedMPH,WindSpeedGustMPH,Humidity,HourlyPrecipIn,Conditions,Clouds,dailyrainin,SoftwareType,DateUTC
2013-03-28 00:00:00,35.8,30.6,29.91,NNW,346,0.0,3.0,81,0.00,,,0.00,meteohub,2013-03-28 04:00:00,
2013-03-28 00:01:00,35.8,30.6,29.91,NNW,346,1.0,3.0,81,0.00,,,0.00,meteohub,2013-03-28 04:01:00,
2013-03-28 00:02:00,35.8,30.6,29.91,NNW,346,0.0,3.0,81,0.00,,,0.00,meteohub,2013-03-28 04:02:00,
2013-03-28 00:07:00,35.4,30.2,29.91,NNW,346,0.0,3.0,81,0.00,,,0.00,meteohub,2013-03-28 04:07:00,
2013-03-28 00:12:00,35.1,30.2,29.91,NNW,346,0.0,2.0,82,0.00,,,0.00,meteohub,2013-03-28 04:12:00,
2013-03-28 00:18:00,35.1,30.2,29.91,NNW,346,0.0,1.0,82,0.00,,,0.00,meteohub,2013-03-28 04:18:00,
2013-03-28 00:23:00,34.9,30.2,29.91,NNW,346,0.0,1.0,83,0.00,,,0.00,meteohub,2013-03-28 04:23:00,
2013-03-28 00:28:00,34.5,29.8,29.91,NNW,346,0.0,0.0,83,0.00,,,0.00,meteohub,2013-03-28 04:28:00,
2013-03-28 00:33:00,34.3,30.0,29.91,NNW,346,0.0,0.0,84,0.00,,,0.00,meteohub,2013-03-28 04:33:00,
2013-03-28 00:38:00,34.2,29.8,29.91,NNW,346,0.0,0.0,84,0.00,,,0.00,meteohub,2013-03-28 04:38:00,
2013-03-28 00:43:00,34.0,30.0,29.91,NNW,346,0.0,0.0,85,0.00,,,0.00,meteohub,2013-03-28 04:43:00,
2013-03-28 00:48:00,34.0,30.0,29.91,NNW,346,0.0,0.0,85,0.00,,,0.00,meteohub,2013-03-28 04:48:00,
2013-03-28 00:53:00,34.0,30.0,29.91,NNW,346,0.0,0.0,85,0.00,,,0.00,meteohub,2013-03-28 04:53:00,
2013-03-28 00:58:00,33.6,29.8,29.91,NNW,346,0.0,0.0,86,0.00,,,0.00,meteohub,2013-03-28 04:58:00,
2013-03-28 01:03:00,33.4,30.0,29.91,NNW,346,0.0,2.0,87,0.00,,,0.00,meteohub,2013-03-28 05:03:00,
2013-03-28 01:08:00,33.4,30.0,29.91,NNW,346,0.0,2.0,87,0.00,,,0.00,meteohub,2013-03-28 05:08:00,
2013-03-28 01:13:00,33.4,30.2,29.91,East,85,0.0,2.0,88,0.00,,,0.00,meteohub,2013-03-28 05:13:00,
2013-03-28 01:19:00,33.4,30.2,29.91,East,85,0.0,2.0,88,0.00,,,0.00,meteohub,2013-03-28 05:19:00,
2013-03-28 01:24:00,33.4,30.2,29.91,ESE,102,1.0,2.0,88,0.00,,,0.00,meteohub,2013-03-28 05:24:00,
2013-03-28 01:29:00,33.4,30.2,29.91,ESE,102,0.0,2.0,88,0.00,,,0.00,meteohub,2013-03-28 05:29:00,
2013-03-28 01:34:00,33.4,30.2,29.91,NW,323,2.0,2.0,88,0.00,,,0.00,meteohub,2013-03-28 05:34:00,
2013-03-28 01:39:00,34.0,30.2,29.91,NW,314,1.0,3.0,86,0.00,,,0.00,meteohub,2013-03-28 05:39:00,
2013-03-28 01:44:00,34.3,30.4,29.91,NNW,343,1.0,4.0,85,0.00,,,0.00,meteohub,2013-03-28 05:44:00,
2013-03-28 01:49:00,34.9,30.2,29.91,NNW,336,0.0,4.0,83,0.00,,,0.00,meteohub,2013-03-28 05:49:00,
2013-03-28 01:54:00,35.1,30.2,29.91,NNW,328,1.0,5.0,82,0.00,,,0.00,meteohub,2013-03-28 05:54:00,
2013-03-28 02:00:00,35.2,30.0,29.91,NNW,338,2.0,5.0,81,0.00,,,0.00,meteohub,2013-03-28 06:00:00,
2013-03-28 02:05:00,35.4,30.2,29.91,North,357,2.0,7.0,81,0.00,,,0.00,meteohub,2013-03-28 06:05:00,
2013-03-28 02:10:00,35.4,30.2,29.91,NNW,347,2.0,7.0,81,0.00,,,0.00,meteohub,2013-03-28 06:10:00,
2013-03-28 02:15:00,35.4,30.6,29.91,NNW,344,0.0,6.0,82,0.00,,,0.00,meteohub,2013-03-28 06:15:00,
2013-03-28 02:20:00,35.4,30.2,29.91,North,355,1.0,6.0,81,0.00,,,0.00,meteohub,2013-03-28 06:20:00,
2013-03-28 02:26:00,35.4,30.6,29.91,WNW,295,0.0,6.0,82,0.00,,,0.00,meteohub,2013-03-28 06:26:00,
2013-03-28 02:31:00,35.2,30.4,29.91,NNW,334,1.0,6.0,82,0.00,,,0.00,meteohub,2013-03-28 06:31:00,
2013-03-28 02:36:00,35.2,30.4,29.91,NNW,335,3.0,6.0,82,0.00,,,0.00,meteohub,2013-03-28 06:36:00,
2013-03-28 02:41:00,35.2,30.6,29.91,NW,313,7.0,7.0,83,0.00,,,0.00,meteohub,2013-03-28 06:41:00,
2013-03-28 02:46:00,35.2,30.6,29.91,NW,316,0.0,10.0,83,0.00,,,0.00,meteohub,2013-03-28 06:46:00,
2013-03-28 02:52:00,35.1,30.4,29.91,NW,321,6.0,10.0,83,0.00,,,0.00,meteohub,2013-03-28 06:52:00,
2013-03-28 02:57:00,35.1,30.7,29.91,NW,316,2.0,10.0,84,0.00,,,0.00,meteohub,2013-03-28 06:57:00,
2013-03-28 03:02:00,34.9,30.6,29.91,North,4,1.0,8.0,84,0.00,,,0.00,meteohub,2013-03-28 07:02:00,
2013-03-28 03:07:00,34.9,30.9,29.91,NW,320,4.0,8.0,85,0.00,,,0.00,meteohub,2013-03-28 07:07:00,
2013-03-28 03:12:00,34.9,30.9,29.91,NW,321,1.0,6.0,85,0.00,,,0.00,meteohub,2013-03-28 07:12:00,
2013-03-28 03:18:00,34.7,30.7,29.91,NNW,329,2.0,6.0,85,0.00,,,0.00,meteohub,2013-03-28 07:18:00,
2013-03-28 03:23:00,34.5,30.7,29.91,NW,322,0.0,7.0,86,0.00,,,0.00,meteohub,2013-03-28 07:23:00,
2013-03-28 03:28:00,34.5,30.7,29.91,North,355,2.0,7.0,86,0.00,,,0.00,meteohub,2013-03-28 07:28:00,
2013-03-28 03:33:00,34.5,30.7,29.91,NW,318,2.0,7.0,86,0.00,,,0.00,meteohub,2013-03-28 07:33:00,
2013-03-28 03:38:00,34.3,30.9,29.91,NNW,338,2.0,5.0,87,0.00,,,0.00,meteohub,2013-03-28 07:38:00,
2013-03-28 03:43:00,34.3,30.9,29.91,NNW,338,1.0,4.0,87,0.00,,,0.00,meteohub,2013-03-28 07:43:00,
2013-03-28 03:48:00,34.3,31.1,29.91,NNW,347,3.0,5.0,88,0.00,,,0.00,meteohub,2013-03-28 07:48:00,
2013-03-28 03:53:00,34.2,30.9,29.91,NNW,347,0.0,5.0,88,0.00,,,0.00,meteohub,2013-03-28 07:53:00,
2013-03-28 03:58:00,34.2,30.9,29.91,North,352,1.0,5.0,88,0.00,,,0.00,meteohub,2013-03-28 07:58:00,
2013-03-28 04:03:00,34.2,30.9,29.91,NW,319,1.0,3.0,88,0.00,,,0.00,meteohub,2013-03-28 08:03:00,
2013-03-28 04:08:00,34.2,30.9,29.91,NW,326,0.0,3.0,88,0.00,,,0.00,meteohub,2013-03-28 08:08:00,
2013-03-28 04:13:00,34.2,30.9,29.91,NW,326,1.0,3.0,88,0.00,,,0.00,meteohub,2013-03-28 08:13:00,
2013-03-28 04:18:00,34.0,31.1,29.91,NNW,327,0.0,3.0,89,0.00,,,0.00,meteohub,2013-03-28 08:18:00,
2013-03-28 04:23:00,33.8,30.9,29.91,NNW,338,1.0,2.0,89,0.00,,,0.00,meteohub,2013-03-28 08:23:00,
2013-03-28 04:28:00,33.6,30.7,29.91,East,97,1.0,3.0,89,0.00,,,0.00,meteohub,2013-03-28 08:28:00,
2013-03-28 04:34:00,33.6,30.9,29.91,East,97,0.0,3.0,90,0.00,,,0.00,meteohub,2013-03-28 08:34:00,
2013-03-28 04:39:00,33.4,30.7,29.91,East,97,0.0,3.0,90,0.00,,,0.00,meteohub,2013-03-28 08:39:00,
2013-03-28 04:44:00,33.4,30.7,29.91,North,10,0.0,1.0,90,0.00,,,0.00,meteohub,2013-03-28 08:44:00,
2013-03-28 04:49:00,33.4,30.7,29.91,North,10,0.0,2.0,90,0.00,,,0.00,meteohub,2013-03-28 08:49:00,
2013-03-28 04:54:00,33.4,30.7,29.91,North,10,0.0,2.0,90,0.00,,,0.00,meteohub,2013-03-28 08:54:00,
2013-03-28 04:59:00,33.4,31.1,29.91,North,10,0.0,2.0,91,0.00,,,0.00,meteohub,2013-03-28 08:59:00,
2013-03-28 05:04:00,33.4,31.1,29.91,North,10,0.0,1.0,91,0.00,,,0.00,meteohub,2013-03-28 09:04:00,
2013-03-28 05:09:00,33.4,31.1,29.92,North,10,0.0,1.0,91,0.00,,,0.00,meteohub,2013-03-28 09:09:00,
2013-03-28 05:14:00,33.3,30.9,29.92,North,10,0.0,1.0,91,0.00,,,0.00,meteohub,2013-03-28 09:14:00,
2013-03-28 05:19:00,33.3,30.9,29.92,North,10,0.0,1.0,91,0.00,,,0.00,meteohub,2013-03-28 09:19:00,
2013-03-28 05:24:00,33.1,31.1,29.92,North,10,0.0,1.0,92,0.00,,,0.00,meteohub,2013-03-28 09:24:00,
2013-03-28 05:29:00,33.1,31.1,29.92,North,10,0.0,1.0,92,0.00,,,0.00,meteohub,2013-03-28 09:29:00,
2013-03-28 05:35:00,33.1,31.1,29.92,North,10,0.0,1.0,92,0.00,,,0.00,meteohub,2013-03-28 09:35:00,
2013-03-28 05:40:00,33.1,31.1,29.92,North,10,0.0,1.0,92,0.00,,,0.00,meteohub,2013-03-28 09:40:00,
2013-03-28 05:45:00,32.9,30.9,29.92,North,10,0.0,1.0,92,0.00,,,0.00,meteohub,2013-03-28 09:45:00,
2013-03-28 05:50:00,32.9,30.9,29.92,North,10,0.0,1.0,92,0.00,,,0.00,meteohub,2013-03-28 09:50:00,
2013-03-28 05:55:00,32.7,30.7,29.92,North,10,0.0,0.0,92,0.00,,,0.00,meteohub,2013-03-28 09:55:00,
2013-03-28 06:00:00,32.7,30.7,29.92,North,10,0.0,0.0,92,0.00,,,0.00,meteohub,2013-03-28 10:00:00,
2013-03-28 06:05:00,32.7,30.7,29.92,North,10,0.0,0.0,92,0.00,,,0.00,meteohub,2013-03-28 10:05:00,
2013-03-28 06:10:00,32.5,30.7,29.93,North,10,0.0,0.0,93,0.00,,,0.00,meteohub,2013-03-28 10:10:00,
2013-03-28 06:15:00,32.5,30.7,29.93,North,10,0.0,0.0,93,0.00,,,0.00,meteohub,2013-03-28 10:15:00,
2013-03-28 06:20:00,32.5,30.7,29.93,North,10,0.0,0.0,93,0.00,,,0.00,meteohub,2013-03-28 10:20:00,
2013-03-28 06:25:00,32.5,30.7,29.93,North,10,0.0,0.0,93,0.00,,,0.00,meteohub,2013-03-28 10:25:00,
2013-03-28 06:30:00,32.5,30.7,29.93,North,10,0.0,0.0,93,0.00,,,0.00,meteohub,2013-03-28 10:30:00,
2013-03-28 06:35:00,32.5,30.7,29.94,North,10,0.0,0.0,93,0.00,,,0.00,meteohub,2013-03-28 10:35:00,
2013-03-28 06:41:00,32.5,30.7,29.94,North,10,0.0,0.0,93,0.00,,,0.00,meteohub,2013-03-28 10:41:00,
2013-03-28 06:46:00,32.5,30.7,29.94,North,10,0.0,0.0,93,0.00,,,0.00,meteohub,2013-03-28 10:46:00,
2013-03-28 06:51:00,32.5,30.9,29.94,ENE,58,0.0,0.0,94,0.00,,,0.00,meteohub,2013-03-28 10:51:00,
2013-03-28 06:56:00,32.5,30.9,29.94,ENE,59,0.0,1.0,94,0.00,,,0.00,meteohub,2013-03-28 10:56:00,
2013-03-28 07:01:00,32.5,30.9,29.94,ENE,60,0.0,1.0,94,0.00,,,0.00,meteohub,2013-03-28 11:01:00,
2013-03-28 07:06:00,32.5,30.9,29.94,ENE,59,0.0,1.0,94,0.00,,,0.00,meteohub,2013-03-28 11:06:00,
2013-03-28 07:12:00,32.7,31.1,29.94,ENE,60,0.0,1.0,94,0.00,,,0.00,meteohub,2013-03-28 11:12:00,
2013-03-28 07:17:00,32.7,31.1,29.94,ENE,61,0.0,1.0,94,0.00,,,0.00,meteohub,2013-03-28 11:17:00,
2013-03-28 07:22:00,32.7,31.1,29.95,ENE,61,0.0,1.0,94,0.00,,,0.00,meteohub,2013-03-28 11:22:00,
2013-03-28 07:27:00,32.7,31.1,29.95,ENE,61,0.0,1.0,94,0.00,,,0.00,meteohub,2013-03-28 11:27:00,
2013-03-28 07:32:00,32.7,31.1,29.95,ENE,61,0.0,0.0,94,0.00,,,0.00,meteohub,2013-03-28 11:32:00,
2013-03-28 07:38:00,32.9,31.3,29.95,ENE,61,0.0,0.0,94,0.00,,,0.00,meteohub,2013-03-28 11:38:00,
2013-03-28 07:43:00,33.1,31.5,29.95,ENE,61,0.0,0.0,94,0.00,,,0.00,meteohub,2013-03-28 11:43:00,
2013-03-28 07:48:00,33.1,31.5,29.95,ENE,61,0.0,0.0,94,0.00,,,0.00,meteohub,2013-03-28 11:48:00,
2013-03-28 07:53:00,33.3,31.6,29.95,ENE,61,0.0,0.0,94,0.00,,,0.00,meteohub,2013-03-28 11:53:00,
2013-03-28 07:58:00,33.3,31.6,29.95,ENE,65,0.0,0.0,94,0.00,,,0.00,meteohub,2013-03-28 11:58:00,
2013-03-28 08:03:00,33.4,31.8,29.96,ENE,65,1.0,0.0,94,0.00,,,0.00,meteohub,2013-03-28 12:03:00,
2013-03-28 08:08:00,33.6,32.0,29.95,East,92,0.0,1.0,94,0.00,,,0.00,meteohub,2013-03-28 12:08:00,
2013-03-28 08:14:00,34.0,32.2,29.96,East,97,2.0,2.0,93,0.00,,,0.00,meteohub,2013-03-28 12:14:00,
2013-03-28 08:19:00,34.3,32.5,29.96,SE,130,0.0,2.0,93,0.00,,,0.00,meteohub,2013-03-28 12:19:00,
2013-03-28 08:24:00,34.5,31.8,29.96,North,349,2.0,5.0,90,0.00,,,0.00,meteohub,2013-03-28 12:24:00,
2013-03-28 08:29:00,34.9,32.0,29.96,NW,326,1.0,5.0,89,0.00,,,0.00,meteohub,2013-03-28 12:29:00,
2013-03-28 08:34:00,35.1,32.2,29.96,WSW,258,2.0,6.0,89,0.00,,,0.00,meteohub,2013-03-28 12:34:00,
2013-03-28 08:40:00,35.2,32.4,29.96,NW,322,1.0,6.0,89,0.00,,,0.00,meteohub,2013-03-28 12:40:00,
2013-03-28 08:45:00,35.4,32.2,29.96,NNW,345,0.0,6.0,88,0.00,,,0.00,meteohub,2013-03-28 12:45:00,
2013-03-28 08:50:00,35.6,32.4,29.96,NNW,341,3.0,5.0,88,0.00,,,0.00,meteohub,2013-03-28 12:50:00,
2013-03-28 08:55:00,36.0,32.5,29.96,NNW,332,2.0,5.0,87,0.00,,,0.00,meteohub,2013-03-28 12:55:00,
2013-03-28 09:00:00,36.1,32.4,29.96,NNW,346,0.0,4.0,86,0.00,,,0.00,meteohub,2013-03-28 13:00:00,
2013-03-28 09:05:00,36.3,32.2,29.96,North,354,2.0,4.0,85,0.00,,,0.00,meteohub,2013-03-28 13:05:00,
2013-03-28 09:10:00,36.5,32.4,29.96,NW,305,2.0,6.0,85,0.00,,,0.00,meteohub,2013-03-28 13:10:00,
2013-03-28 09:15:00,36.7,32.5,29.96,NNE,21,2.0,6.0,85,0.00,,,0.00,meteohub,2013-03-28 13:15:00,
2013-03-28 09:20:00,36.7,32.5,29.96,WNW,289,6.0,6.0,85,0.00,,,0.00,meteohub,2013-03-28 13:20:00,
2013-03-28 09:25:00,36.9,32.5,29.96,NW,305,5.0,7.0,84,0.00,,,0.00,meteohub,2013-03-28 13:25:00,
2013-03-28 09:31:00,36.7,32.5,29.96,NW,309,1.0,7.0,85,0.00,,,0.00,meteohub,2013-03-28 13:31:00,
2013-03-28 09:36:00,36.9,32.7,29.97,NNW,344,1.0,7.0,85,0.00,,,0.00,meteohub,2013-03-28 13:36:00,
2013-03-28 09:41:00,36.9,32.5,29.97,WNW,297,3.0,8.0,84,0.00,,,0.00,meteohub,2013-03-28 13:41:00,
2013-03-28 09:46:00,37.0,32.4,29.97,NW,326,2.0,8.0,83,0.00,,,0.00,meteohub,2013-03-28 13:46:00,
2013-03-28 09:51:00,37.0,32.4,29.97,NNW,329,3.0,8.0,83,0.00,,,0.00,meteohub,2013-03-28 13:51:00,
2013-03-28 09:56:00,37.2,32.5,29.97,WNW,284,4.0,7.0,83,0.00,,,0.00,meteohub,2013-03-28 13:56:00,
2013-03-28 10:01:00,37.2,32.5,29.97,NNW,330,1.0,7.0,83,0.00,,,0.00,meteohub,2013-03-28 14:01:00,
2013-03-28 10:06:00,37.6,32.9,29.97,NNW,332,1.0,7.0,83,0.00,,,0.00,meteohub,2013-03-28 14:06:00,
2013-03-28 10:11:00,37.6,32.9,29.97,NNW,343,1.0,7.0,83,0.00,,,0.00,meteohub,2013-03-28 14:11:00,
2013-03-28 10:16:00,37.6,32.5,29.98,West,278,1.0,6.0,82,0.00,,,0.00,meteohub,2013-03-28 14:16:00,
2013-03-28 10:22:00,37.8,32.7,29.98,NW,320,3.0,5.0,82,0.00,,,0.00,meteohub,2013-03-28 14:22:00,
2013-03-28 10:27:00,37.9,33.3,29.98,SE,141,1.0,4.0,83,0.00,,,0.00,meteohub,2013-03-28 14:27:00,
2013-03-28 10:32:00,37.9,32.9,29.98,North,359,2.0,4.0,82,0.00,,,0.00,meteohub,2013-03-28 14:32:00,
2013-03-28 10:37:00,37.9,32.9,29.98,North,2,2.0,5.0,82,0.00,,,0.00,meteohub,2013-03-28 14:37:00,
2013-03-28 10:42:00,38.1,33.1,29.98,North,6,0.0,5.0,82,0.00,,,0.00,meteohub,2013-03-28 14:42:00,
2013-03-28 10:47:00,38.1,33.1,29.98,NNW,341,0.0,5.0,82,0.00,,,0.00,meteohub,2013-03-28 14:47:00,
2013-03-28 10:52:00,38.5,33.1,29.98,West,281,5.0,5.0,81,0.00,,,0.00,meteohub,2013-03-28 14:52:00,
2013-03-28 10:57:00,38.7,33.1,29.98,NNW,342,6.0,7.0,80,0.00,,,0.00,meteohub,2013-03-28 14:57:00,
2013-03-28 11:02:00,38.5,32.9,29.98,NW,319,6.0,8.0,80,0.00,,,0.00,meteohub,2013-03-28 15:02:00,
2013-03-28 11:07:00,38.5,32.9,29.98,NNE,32,4.0,10.0,80,0.00,,,0.00,meteohub,2013-03-28 15:07:00,
2013-03-28 11:13:00,38.5,32.9,29.99,NW,314,5.0,10.0,80,0.00,,,0.00,meteohub,2013-03-28 15:13:00,
2013-03-28 11:18:00,38.8,33.3,29.99,North,4,3.0,9.0,80,0.00,,,0.00,meteohub,2013-03-28 15:18:00,
2013-03-28 11:23:00,39.0,33.1,29.98,NW,316,4.0,9.0,79,0.00,,,0.00,meteohub,2013-03-28 15:23:00,
2013-03-28 11:28:00,39.0,33.1,29.98,NW,326,4.0,10.0,79,0.00,,,0.00,meteohub,2013-03-28 15:28:00,
2013-03-28 11:33:00,39.4,33.4,29.98,NW,316,6.0,10.0,79,0.00,,,0.00,meteohub,2013-03-28 15:33:00,
2013-03-28 11:38:00,39.7,33.1,29.98,NW,319,1.0,10.0,77,0.00,,,0.00,meteohub,2013-03-28 15:38:00,
2013-03-28 11:43:00,40.3,33.6,29.98,North,356,0.0,8.0,77,0.00,,,0.00,meteohub,2013-03-28 15:43:00,
2013-03-28 11:48:00,41.0,33.6,29.97,NW,309,3.0,8.0,75,0.00,,,0.00,meteohub,2013-03-28 15:48:00,
2013-03-28 11:53:00,41.5,33.8,29.96,NNE,23,4.0,8.0,74,0.00,,,0.00,meteohub,2013-03-28 15:53:00,
2013-03-28 11:59:00,41.9,33.8,29.96,WNW,299,3.0,8.0,73,0.00,,,0.00,meteohub,2013-03-28 15:59:00,
2013-03-28 12:04:00,42.3,34.2,29.96,WNW,299,3.0,8.0,73,0.00,,,0.00,meteohub,2013-03-28 16:04:00,
2013-03-28 12:09:00,42.3,33.6,29.96,NNW,336,4.0,9.0,71,0.00,,,0.00,meteohub,2013-03-28 16:09:00,
2013-03-28 12:14:00,41.7,33.1,29.96,NNW,343,5.0,9.0,71,0.00,,,0.00,meteohub,2013-03-28 16:14:00,
2013-03-28 12:19:00,41.4,33.4,29.96,NW,323,4.0,11.0,73,0.00,,,0.00,meteohub,2013-03-28 16:19:00,
2013-03-28 12:24:00,41.4,33.4,29.97,NNW,344,5.0,12.0,73,0.00,,,0.00,meteohub,2013-03-28 16:24:00,
2013-03-28 12:29:00,41.5,33.8,29.97,NW,318,8.0,12.0,74,0.00,,,0.00,meteohub,2013-03-28 16:29:00,
2013-03-28 12:34:00,41.7,33.4,29.97,North,353,4.0,14.0,72,0.00,,,0.00,meteohub,2013-03-28 16:34:00,
2013-03-28 12:39:00,42.1,33.8,29.97,North,359,3.0,14.0,72,0.00,,,0.00,meteohub,2013-03-28 16:39:00,
2013-03-28 12:44:00,42.3,33.8,29.97,NW,315,6.0,12.0,72,0.00,,,0.00,meteohub,2013-03-28 16:44:00,
2013-03-28 12:49:00,42.3,33.6,29.96,SW,236,5.0,12.0,71,0.00,,,0.00,meteohub,2013-03-28 16:49:00,
2013-03-28 12:54:00,42.4,33.6,29.96,NNW,345,5.0,12.0,71,0.00,,,0.00,meteohub,2013-03-28 16:54:00,
2013-03-28 12:59:00,42.6,33.8,29.96,WNW,291,7.0,11.0,71,0.00,,,0.00,meteohub,2013-03-28 16:59:00,
2013-03-28 13:05:00,42.6,33.8,29.96,WNW,282,8.0,12.0,71,0.00,,,0.00,meteohub,2013-03-28 17:05:00,
2013-03-28 13:10:00,42.3,33.6,29.96,NW,318,5.0,12.0,71,0.00,,,0.00,meteohub,2013-03-28 17:10:00,
2013-03-28 13:15:00,43.0,34.2,29.96,NNW,332,7.0,15.0,71,0.00,,,0.00,meteohub,2013-03-28 17:15:00,
2013-03-28 13:20:00,42.8,34.0,29.97,North,355,7.0,15.0,71,0.00,,,0.00,meteohub,2013-03-28 17:20:00,
2013-03-28 13:25:00,42.4,33.4,29.97,NNW,332,9.0,16.0,70,0.00,,,0.00,meteohub,2013-03-28 17:25:00,
2013-03-28 13:30:00,42.1,33.8,29.96,NW,324,7.0,16.0,72,0.00,,,0.00,meteohub,2013-03-28 17:30:00,
2013-03-28 13:35:00,42.1,33.8,29.97,North,1,3.0,16.0,72,0.00,,,0.00,meteohub,2013-03-28 17:35:00,
2013-03-28 13:41:00,41.7,33.6,29.96,NW,318,12.0,14.0,73,0.00,,,0.00,meteohub,2013-03-28 17:41:00,
2013-03-28 13:46:00,41.7,33.6,29.97,North,351,2.0,15.0,73,0.00,,,0.00,meteohub,2013-03-28 17:46:00,
2013-03-28 13:51:00,42.1,34.0,29.96,NW,319,2.0,15.0,73,0.00,,,0.00,meteohub,2013-03-28 17:51:00,
2013-03-28 13:56:00,42.4,34.0,29.96,NW,323,4.0,15.0,72,0.00,,,0.00,meteohub,2013-03-28 17:56:00,
2013-03-28 14:01:00,42.3,33.6,29.96,NNW,330,7.0,15.0,71,0.00,,,0.00,meteohub,2013-03-28 18:01:00,
2013-03-28 14:06:00,41.9,33.3,29.96,NNW,346,3.0,11.0,71,0.00,,,0.00,meteohub,2013-03-28 18:06:00,
2013-03-28 14:11:00,41.9,33.3,29.96,WNW,293,7.0,12.0,71,0.00,,,0.00,meteohub,2013-03-28 18:11:00,
2013-03-28 14:16:00,41.7,32.7,29.96,NW,307,7.0,15.0,70,0.00,,,0.00,meteohub,2013-03-28 18:16:00,
2013-03-28 14:21:00,42.1,33.1,29.97,NNW,327,8.0,15.0,70,0.00,,,0.00,meteohub,2013-03-28 18:21:00,
2013-03-28 14:27:00,41.7,32.7,29.96,NW,316,4.0,13.0,70,0.00,,,0.00,meteohub,2013-03-28 18:27:00,
2013-03-28 14:32:00,41.9,32.9,29.97,NNW,335,3.0,13.0,70,0.00,,,0.00,meteohub,2013-03-28 18:32:00,
2013-03-28 14:37:00,41.7,33.1,29.96,North,1,5.0,12.0,71,0.00,,,0.00,meteohub,2013-03-28 18:37:00,
2013-03-28 14:42:00,41.5,32.5,29.96,NNW,334,8.0,12.0,70,0.00,,,0.00,meteohub,2013-03-28 18:42:00,
2013-03-28 14:48:00,41.4,32.7,29.96,WSW,258,2.0,12.0,71,0.00,,,0.00,meteohub,2013-03-28 18:48:00,
2013-03-28 14:53:00,41.5,32.9,29.96,NNW,347,2.0,13.0,71,0.00,,,0.00,meteohub,2013-03-28 18:53:00,
2013-03-28 14:58:00,41.5,32.5,29.97,NNW,344,7.0,13.0,70,0.00,,,0.00,meteohub,2013-03-28 18:58:00,
2013-03-28 15:03:00,41.7,32.7,29.96,NW,322,5.0,13.0,70,0.00,,,0.00,meteohub,2013-03-28 19:03:00,
2013-03-28 15:08:00,42.1,33.1,29.96,North,353,3.0,10.0,70,0.00,,,0.00,meteohub,2013-03-28 19:08:00,
2013-03-28 15:13:00,42.3,32.9,29.96,West,270,5.0,10.0,69,0.00,,,0.00,meteohub,2013-03-28 19:13:00,
2013-03-28 15:18:00,42.4,32.7,29.96,West,278,2.0,10.0,68,0.00,,,0.00,meteohub,2013-03-28 19:18:00,
2013-03-28 15:23:00,42.4,32.7,29.96,WNW,299,5.0,10.0,68,0.00,,,0.00,meteohub,2013-03-28 19:23:00,
2013-03-28 15:28:00,42.6,32.7,29.96,NNE,22,3.0,11.0,68,0.00,,,0.00,meteohub,2013-03-28 19:28:00,
2013-03-28 15:33:00,42.4,32.7,29.96,NNW,330,6.0,11.0,68,0.00,,,0.00,meteohub,2013-03-28 19:33:00,
2013-03-28 15:38:00,42.3,32.5,29.96,North,349,3.0,11.0,68,0.00,,,0.00,meteohub,2013-03-28 19:38:00,
2013-03-28 15:44:00,42.3,32.5,29.96,NNW,341,4.0,10.0,68,0.00,,,0.00,meteohub,2013-03-28 19:44:00,
2013-03-28 15:49:00,42.3,32.5,29.96,NNW,329,1.0,9.0,68,0.00,,,0.00,meteohub,2013-03-28 19:49:00,
2013-03-28 15:54:00,42.4,32.7,29.96,NNW,336,5.0,10.0,68,0.00,,,0.00,meteohub,2013-03-28 19:54:00,
2013-03-28 15:59:00,42.4,32.7,29.96,NW,315,4.0,10.0,68,0.00,,,0.00,meteohub,2013-03-28 19:59:00,
2013-03-28 16:04:00,42.6,32.4,29.97,NNW,341,12.0,12.0,67,0.00,,,0.00,meteohub,2013-03-28 20:04:00,
2013-03-28 16:10:00,42.6,32.4,29.97,NNW,333,6.0,10.0,67,0.00,,,0.00,meteohub,2013-03-28 20:10:00,
2013-03-28 16:15:00,42.6,32.4,29.97,NW,309,5.0,12.0,67,0.00,,,0.00,meteohub,2013-03-28 20:15:00,
2013-03-28 16:20:00,42.8,32.5,29.96,North,358,3.0,12.0,67,0.00,,,0.00,meteohub,2013-03-28 20:20:00,
2013-03-28 16:25:00,43.0,32.4,29.96,NNW,332,4.0,10.0,66,0.00,,,0.00,meteohub,2013-03-28 20:25:00,
2013-03-28 16:30:00,43.0,32.7,29.97,North,350,2.0,9.0,67,0.00,,,0.00,meteohub,2013-03-28 20:30:00,
2013-03-28 16:35:00,43.0,32.4,29.97,WNW,295,5.0,9.0,66,0.00,,,0.00,meteohub,2013-03-28 20:35:00,
2013-03-28 16:40:00,43.0,32.4,29.97,North,349,3.0,7.0,66,0.00,,,0.00,meteohub,2013-03-28 20:40:00,
2013-03-28 16:46:00,43.0,32.4,29.97,West,280,5.0,8.0,66,0.00,,,0.00,meteohub,2013-03-28 20:46:00,
2013-03-28 16:51:00,43.2,32.2,29.97,WNW,299,2.0,8.0,65,0.00,,,0.00,meteohub,2013-03-28 20:51:00,
2013-03-28 16:56:00,43.2,32.2,29.97,WNW,294,5.0,8.0,65,0.00,,,0.00,meteohub,2013-03-28 20:56:00,
2013-03-28 17:01:00,43.3,32.4,29.97,NNW,341,3.0,7.0,65,0.00,,,0.00,meteohub,2013-03-28 21:01:00,
2013-03-28 17:06:00,43.5,31.8,29.97,North,359,2.0,7.0,63,0.00,,,0.00,meteohub,2013-03-28 21:06:00,
2013-03-28 17:11:00,43.5,31.8,29.97,NNW,329,3.0,7.0,63,0.00,,,0.00,meteohub,2013-03-28 21:11:00,
2013-03-28 17:16:00,43.5,31.3,29.97,WNW,283,4.0,7.0,62,0.00,,,0.00,meteohub,2013-03-28 21:16:00,
2013-03-28 17:21:00,43.7,31.1,29.97,North,350,2.0,8.0,61,0.00,,,0.00,meteohub,2013-03-28 21:21:00,
2013-03-28 17:26:00,43.7,31.1,29.97,NNW,338,1.0,8.0,61,0.00,,,0.00,meteohub,2013-03-28 21:26:00,
2013-03-28 17:31:00,43.9,31.3,29.98,NNW,340,0.0,6.0,61,0.00,,,0.00,meteohub,2013-03-28 21:31:00,
2013-03-28 17:36:00,43.5,31.8,29.98,NNW,340,0.0,6.0,63,0.00,,,0.00,meteohub,2013-03-28 21:36:00,
2013-03-28 17:42:00,43.3,30.7,29.98,NNW,347,1.0,6.0,61,0.00,,,0.00,meteohub,2013-03-28 21:42:00,
2013-03-28 17:47:00,43.5,30.9,29.98,North,11,0.0,7.0,61,0.00,,,0.00,meteohub,2013-03-28 21:47:00,
2013-03-28 17:52:00,43.3,31.6,29.98,North,11,0.0,7.0,63,0.00,,,0.00,meteohub,2013-03-28 21:52:00,
2013-03-28 17:57:00,43.2,31.8,29.98,North,11,0.0,7.0,64,0.00,,,0.00,meteohub,2013-03-28 21:57:00,
2013-03-28 18:02:00,42.8,32.2,29.98,NW,321,0.0,2.0,66,0.00,,,0.00,meteohub,2013-03-28 22:02:00,
2013-03-28 18:07:00,42.6,32.0,29.98,North,357,0.0,2.0,66,0.00,,,0.00,meteohub,2013-03-28 22:07:00,
2013-03-28 18:12:00,42.3,30.9,29.98,NNW,332,2.0,2.0,64,0.00,,,0.00,meteohub,2013-03-28 22:12:00,
2013-03-28 18:18:00,42.4,32.2,29.99,WNW,303,2.0,5.0,67,0.00,,,0.00,meteohub,2013-03-28 22:18:00,
2013-03-28 18:23:00,42.3,31.6,29.99,NNW,348,1.0,5.0,66,0.00,,,0.00,meteohub,2013-03-28 22:23:00,
2013-03-28 18:28:00,42.1,32.7,29.99,NNW,342,3.0,5.0,69,0.00,,,0.00,meteohub,2013-03-28 22:28:00,
2013-03-28 18:33:00,41.7,32.7,29.99,ENE,69,0.0,4.0,70,0.00,,,0.00,meteohub,2013-03-28 22:33:00,
2013-03-28 18:38:00,41.2,33.3,29.99,ENE,69,0.0,4.0,73,0.00,,,0.00,meteohub,2013-03-28 22:38:00,
2013-03-28 18:43:00,40.5,32.5,29.99,ENE,69,0.0,4.0,73,0.00,,,0.00,meteohub,2013-03-28 22:43:00,
2013-03-28 18:48:00,40.1,32.9,29.99,ENE,69,0.0,1.0,75,0.00,,,0.00,meteohub,2013-03-28 22:48:00,
2013-03-28 18:53:00,39.7,32.7,30.00,ENE,69,0.0,0.0,76,0.00,,,0.00,meteohub,2013-03-28 22:53:00,
2013-03-28 18:58:00,39.2,32.4,30.00,ENE,69,0.0,1.0,76,0.00,,,0.00,meteohub,2013-03-28 22:58:00,
2013-03-28 19:03:00,38.8,32.2,30.00,ESE,115,3.0,3.0,77,0.00,,,0.00,meteohub,2013-03-28 23:03:00,
2013-03-28 19:08:00,38.7,32.7,30.00,ESE,115,0.0,3.0,79,0.00,,,0.00,meteohub,2013-03-28 23:08:00,
2013-03-28 19:14:00,38.1,32.2,30.00,ESE,115,0.0,3.0,79,0.00,,,0.00,meteohub,2013-03-28 23:14:00,
2013-03-28 19:19:00,37.6,32.0,30.00,ESE,115,0.0,3.0,80,0.00,,,0.00,meteohub,2013-03-28 23:19:00,
2013-03-28 19:24:00,37.0,31.8,30.01,ESE,115,0.0,1.0,81,0.00,,,0.00,meteohub,2013-03-28 23:24:00,
2013-03-28 19:29:00,36.9,31.6,30.01,ESE,115,0.0,1.0,81,0.00,,,0.00,meteohub,2013-03-28 23:29:00,
2013-03-28 19:34:00,36.7,31.6,30.01,ESE,115,0.0,0.0,82,0.00,,,0.00,meteohub,2013-03-28 23:34:00,
2013-03-28 19:39:00,36.3,31.3,30.01,ESE,115,0.0,0.0,82,0.00,,,0.00,meteohub,2013-03-28 23:39:00,
2013-03-28 19:44:00,36.0,31.3,30.01,ESE,115,0.0,0.0,83,0.00,,,0.00,meteohub,2013-03-28 23:44:00,
2013-03-28 19:49:00,35.8,31.1,30.01,ESE,115,0.0,0.0,83,0.00,,,0.00,meteohub,2013-03-28 23:49:00,
2013-03-28 19:55:00,35.4,31.1,30.02,ESE,115,0.0,0.0,84,0.00,,,0.00,meteohub,2013-03-28 23:55:00,
2013-03-28 20:00:00,35.1,30.9,30.02,ESE,115,0.0,0.0,85,0.00,,,0.00,meteohub,2013-03-29 00:00:00,
2013-03-28 20:05:00,34.9,30.9,30.02,ESE,115,0.0,0.0,85,0.00,,,0.00,meteohub,2013-03-29 00:05:00,
2013-03-28 20:10:00,34.5,30.6,30.02,ESE,115,0.0,0.0,85,0.00,,,0.00,meteohub,2013-03-29 00:10:00,
2013-03-28 20:15:00,34.2,30.2,30.02,ESE,115,0.0,0.0,85,0.00,,,0.00,meteohub,2013-03-29 00:15:00,
2013-03-28 20:20:00,34.0,30.0,30.03,ESE,115,0.0,0.0,85,0.00,,,0.00,meteohub,2013-03-29 00:20:00,
2013-03-28 20:25:00,33.8,30.0,30.03,ESE,115,0.0,0.0,86,0.00,,,0.00,meteohub,2013-03-29 00:25:00,
2013-03-28 20:31:00,33.6,29.8,30.03,ESE,115,0.0,0.0,86,0.00,,,0.00,meteohub,2013-03-29 00:31:00,
2013-03-28 20:36:00,33.3,29.5,30.03,ESE,115,0.0,0.0,86,0.00,,,0.00,meteohub,2013-03-29 00:36:00,
2013-03-28 20:41:00,32.9,29.5,30.03,ESE,115,0.0,0.0,87,0.00,,,0.00,meteohub,2013-03-29 00:41:00,
2013-03-28 20:47:00,32.7,29.3,30.03,ESE,115,0.0,0.0,87,0.00,,,0.00,meteohub,2013-03-29 00:47:00,
2013-03-28 20:52:00,32.5,29.3,30.04,ESE,115,0.0,0.0,88,0.00,,,0.00,meteohub,2013-03-29 00:52:00,
2013-03-28 20:57:00,32.4,29.1,30.04,ESE,115,0.0,0.0,88,0.00,,,0.00,meteohub,2013-03-29 00:57:00,
2013-03-28 21:02:00,32.2,28.9,30.04,ESE,115,0.0,0.0,88,0.00,,,0.00,meteohub,2013-03-29 01:02:00,
2013-03-28 21:07:00,31.8,28.8,30.04,ESE,115,0.0,0.0,88,0.00,,,0.00,meteohub,2013-03-29 01:07:00,
2013-03-28 21:12:00,31.6,28.6,30.04,ESE,115,0.0,0.0,88,0.00,,,0.00,meteohub,2013-03-29 01:12:00,
2013-03-28 21:17:00,31.6,28.6,30.04,ESE,115,0.0,0.0,88,0.00,,,0.00,meteohub,2013-03-29 01:17:00,
2013-03-28 21:22:00,31.5,28.6,30.04,ESE,115,0.0,0.0,89,0.00,,,0.00,meteohub,2013-03-29 01:22:00,
2013-03-28 21:27:00,31.3,28.4,30.04,ESE,115,0.0,0.0,89,0.00,,,0.00,meteohub,2013-03-29 01:27:00,
2013-03-28 21:33:00,31.1,28.2,30.04,ESE,115,0.0,0.0,89,0.00,,,0.00,meteohub,2013-03-29 01:33:00,
2013-03-28 21:38:00,30.9,28.4,30.04,ESE,115,0.0,0.0,90,0.00,,,0.00,meteohub,2013-03-29 01:38:00,
2013-03-28 21:43:00,30.7,28.2,30.04,ESE,115,0.0,0.0,90,0.00,,,0.00,meteohub,2013-03-29 01:43:00,
2013-03-28 21:48:00,30.7,28.2,30.05,ESE,115,0.0,0.0,90,0.00,,,0.00,meteohub,2013-03-29 01:48:00,
2013-03-28 21:54:00,30.6,28.0,30.05,ESE,115,0.0,0.0,90,0.00,,,0.00,meteohub,2013-03-29 01:54:00,
2013-03-28 21:59:00,30.6,28.0,30.04,ESE,115,0.0,0.0,90,0.00,,,0.00,meteohub,2013-03-29 01:59:00,
2013-03-28 22:04:00,30.4,28.0,30.05,ESE,115,0.0,0.0,91,0.00,,,0.00,meteohub,2013-03-29 02:04:00,
2013-03-28 22:09:00,30.4,28.0,30.05,ESE,115,0.0,0.0,91,0.00,,,0.00,meteohub,2013-03-29 02:09:00,
2013-03-28 22:14:00,30.4,28.4,30.05,ESE,115,0.0,0.0,92,0.00,,,0.00,meteohub,2013-03-29 02:14:00,
2013-03-28 22:19:00,30.6,28.6,30.05,ESE,115,0.0,0.0,92,0.00,,,0.00,meteohub,2013-03-29 02:19:00,
2013-03-28 22:24:00,30.6,28.6,30.05,ESE,115,0.0,0.0,92,0.00,,,0.00,meteohub,2013-03-29 02:24:00,
2013-03-28 22:29:00,30.6,28.6,30.05,ESE,115,0.0,0.0,92,0.00,,,0.00,meteohub,2013-03-29 02:29:00,
2013-03-28 22:34:00,30.6,28.6,30.04,ESE,115,0.0,0.0,92,0.00,,,0.00,meteohub,2013-03-29 02:34:00,
2013-03-28 22:39:00,30.7,28.8,30.04,ESE,115,0.0,0.0,92,0.00,,,0.00,meteohub,2013-03-29 02:39:00,
2013-03-28 22:45:00,30.7,28.8,30.04,ESE,115,0.0,0.0,92,0.00,,,0.00,meteohub,2013-03-29 02:45:00,
2013-03-28 22:50:00,30.9,28.9,30.05,ESE,115,0.0,2.0,92,0.00,,,0.00,meteohub,2013-03-29 02:50:00,
2013-03-28 22:55:00,30.9,28.9,30.05,ESE,115,0.0,2.0,92,0.00,,,0.00,meteohub,2013-03-29 02:55:00,
2013-03-28 23:00:00,30.9,28.9,30.05,SE,129,1.0,2.0,92,0.00,,,0.00,meteohub,2013-03-29 03:00:00,
2013-03-28 23:05:00,31.3,29.3,30.04,SE,129,1.0,3.0,92,0.00,,,0.00,meteohub,2013-03-29 03:05:00,
2013-03-28 23:10:00,31.5,29.5,30.04,SE,129,1.0,3.0,92,0.00,,,0.00,meteohub,2013-03-29 03:10:00,
2013-03-28 23:15:00,31.6,29.7,30.04,SE,129,0.0,2.0,92,0.00,,,0.00,meteohub,2013-03-29 03:15:00,
2013-03-28 23:20:00,31.8,29.8,30.04,SE,129,0.0,2.0,92,0.00,,,0.00,meteohub,2013-03-29 03:20:00,
2013-03-28 23:25:00,32.2,30.2,30.04,SE,129,2.0,2.0,92,0.00,,,0.00,meteohub,2013-03-29 03:25:00,
2013-03-28 23:30:00,32.4,30.4,30.05,SE,129,0.0,2.0,92,0.00,,,0.00,meteohub,2013-03-29 03:30:00,
2013-03-28 23:35:00,32.5,30.2,30.05,SE,129,1.0,2.0,91,0.00,,,0.00,meteohub,2013-03-29 03:35:00,
2013-03-28 23:40:00,32.9,30.6,30.05,SE,129,0.0,2.0,91,0.00,,,0.00,meteohub,2013-03-29 03:40:00,
2013-03-28 23:46:00,33.3,30.9,30.05,ESE,114,2.0,2.0,91,0.00,,,0.00,meteohub,2013-03-29 03:46:00,
2013-03-28 23:51:00,33.4,30.7,30.05,SE,137,0.0,5.0,90,0.00,,,0.00,meteohub,2013-03-29 03:51:00,
2013-03-28 23:56:00,34.2,31.5,30.05,North,353,2.0,5.0,90,0.00,,,0.00,meteohub,2013-03-29 03:56:00,